Погода в Милуоки

США     43°02′27″N   87°54′23″W
темп.,
°C
ветер,
м/с
пор.,
м/с
влажн.,
%
обл.,
%
осадки,
мм/ч
давл.,
гПа
погр.,
м
21 октября, чт
чт2101:00+15юз41292100 3.0 1008539
04:00+12зюз41087100 0.1 1008495
07:00+9зюз51087100 0.1 1008470
10:00+10з6982100 0.1 1009605
13:00+10ссз5986100 0.8 1012678
16:00+9ссз488198 0.3 1014775
19:00+7ссз2676100 0.3 1017315
22:00+6зсз358267 0.0 1018163
22 октября, пт
пт2201:00+6ссз2377100 0.0 1017122
04:00+5ссз236455 0.0 1017100
07:00+4сз2365100 0.0 1018121
10:00+7ссз2355100 0.0 1018404
13:00+9сз2242100 0.0 10171002
16:00+10зсз2340100 0.0 10161226
19:00+7зсз235185 0.0 1016218
22:00+6сз23586 0.0 1017106
23 октября, сб
сб2301:00+5зсз236130 0.0 101778
04:00+4зсз23635 0.0 101777
07:00+3сз23630 0.0 101883
10:00+8ссз23500 0.0 1018388
13:00+11св12415 0.0 10171326
16:00+11в32455 0.0 1016943
19:00+8в236048 0.0 1017206
22:00+8всв236470 0.0 1017141
24 октября, вс
вс2401:00+7всв236775 0.0 101798
04:00+7всв356689 0.0 1016145
07:00+8в4865100 0.0 1016406
10:00+10всв6863100 0.0 1016894
13:00+11в71057100 0.0 1015984
16:00+8в61083100 2.9 1015809
19:00+9в81278100 3.2 1013917
22:00+8в101589100 7.6 1012896
25 октября, пн
пн2501:00+9в91392100 16.8 10121064
04:00+10в91393100 1.7 10101002
07:00+10в91294100 4.8 1009998
10:00+10всв81190100 1.5 1013975
13:00+9всв81188100 2.3 10141105
16:00+9всв6986100 0.5 10171002
19:00+9всв6980100 0.7 10181026
22:00+9всв5881100 0.1 1019801